Weather History for KNBG - October, 2013

Change the Weather History Date:

Tuesday, October 15, 2013

  Actual Average Record
Temperature  
Mean Temperature 75 °F -  
Max Temperature 84 °F 77 °F 86 °F (1998)
Min Temperature 66 °F 60 °F 48 °F (2004)
Cooling Degree Days 10    
Growing Degree Days 25 (Base 50)    
Moisture  
Dew Point 66 °F    
Average Humidity 77    
Maximum Humidity 94    
Minimum Humidity 51    
Precipitation  
Precipitation 0.00 in - - ()
Sea Level Pressure  
Sea Level Pressure 30.02 in    
Wind  
Wind Speed 2 mph (ESE)    
Max Wind Speed 8 mph    
Max Gust Speed -    
Visibility 10 miles    
Events Fog    
Averages and records for this station are not official NWS values.
T = Trace of Precipitation, MM = Missing Value Source: NWS Daily Summary

Daily Weather History Graph

Daily Weather History Graph

Search for Another Location

Airport or City:

Trip Planner

Search our weather history database for the weather conditions in past years. The results will help you decide how hot, cold, wet, or windy it might be!

Date:

Astronomy

Oct. 15, 2013 Rise Set
Actual Time 7:02 AM CDT 6:29 PM CDT
Civil Twilight 6:37 AM CDT 6:53 PM CDT
Nautical Twilight 6:10 AM CDT 7:20 PM CDT
Astronomical Twilight 5:42 AM CDT 7:48 PM CDT
Moon 4:22 PM CDT (10/15) 3:39 AM CDT (10/15)
Length of Visible Light 12h 15m
Length of Day
11h 27m
Waxing Gibbous, 88% of the Moon is Illuminated
Oct 15
Waxing Gibbous
Oct 18
Full
Oct 26
Last Quarter
Nov 3
New
Nov 9
First Quarter

Hourly Weather History & Observations

Time (CDT) Temp. Heat Index Dew Point Humidity Pressure Visibility Wind Dir Wind Speed Gust Speed Precip Events Conditions
12:55 AM 68.0 °F - 64.9 °F 90% 30.04 in 10.0 mi Calm Calm - N/A   Clear
1:39 AM 66.2 °F - 64.4 °F 94% 30.03 in 10.0 mi Calm Calm - N/A   Partly Cloudy
1:55 AM 68.0 °F - 64.9 °F 90% 30.03 in 10.0 mi Calm Calm - N/A   Partly Cloudy
2:55 AM 66.9 °F - 64.0 °F 90% 30.02 in 10.0 mi Calm Calm - N/A   Partly Cloudy
3:55 AM 66.9 °F - 64.0 °F 90% 30.03 in 10.0 mi Calm Calm - N/A   Clear
4:37 AM 66.2 °F - 64.4 °F 94% 30.03 in 10.0 mi Calm Calm - N/A   Mostly Cloudy
4:55 AM 66.0 °F - 64.0 °F 93% 30.03 in 10.0 mi Calm Calm - N/A   Scattered Clouds
5:15 AM - - - N/A% - - North - - N/A   Unknown
5:55 AM 66.0 °F - 64.0 °F 93% 30.04 in 10.0 mi Calm Calm - N/A   Partly Cloudy
6:13 AM 66.2 °F - 64.4 °F 94% 30.04 in 7.0 mi Calm Calm - N/A Fog Shallow Fog
6:55 AM 66.9 °F - 64.9 °F 93% 30.04 in 7.0 mi Calm Calm - N/A Fog Shallow Fog
7:55 AM 69.1 °F - 66.9 °F 93% 30.04 in 7.0 mi Calm Calm - N/A   Scattered Clouds
8:55 AM 77.0 °F - 71.1 °F 82% 30.05 in 8.0 mi ENE 3.5 mph - N/A   Mostly Cloudy
9:55 AM 80.1 °F 82.7 °F 68.0 °F 67% 30.06 in 10.0 mi East 4.6 mph - N/A   Mostly Cloudy
10:55 AM 81.0 °F 83.3 °F 66.9 °F 62% 30.05 in 10.0 mi East 5.8 mph - N/A   Mostly Cloudy
11:55 AM 84.0 °F 85.8 °F 64.9 °F 53% 30.04 in 10.0 mi Calm Calm - N/A   Mostly Cloudy
12:55 PM 82.9 °F 84.6 °F 64.9 °F 54% 30.01 in 10.0 mi ESE 6.9 mph - N/A   Mostly Cloudy
1:55 PM 84.9 °F 86.6 °F 64.9 °F 51% 29.98 in 10.0 mi NE 5.8 mph - N/A   Mostly Cloudy
2:55 PM 84.9 °F 86.6 °F 64.9 °F 51% 29.97 in 10.0 mi ESE 6.9 mph - N/A   Mostly Cloudy
3:55 PM 82.9 °F 85.0 °F 66.0 °F 56% 29.97 in 10.0 mi ESE 6.9 mph - N/A   Mostly Cloudy
4:00 PM - - - N/A% - - North - - N/A   Unknown
4:55 PM 81.0 °F 83.3 °F 66.9 °F 62% 29.96 in 10.0 mi East 6.9 mph - N/A   Mostly Cloudy
5:55 PM 80.1 °F 82.1 °F 66.0 °F 62% 29.97 in 10.0 mi SE 8.1 mph - N/A   Mostly Cloudy
6:55 PM 78.1 °F - 66.0 °F 66% 29.98 in 10.0 mi SE 5.8 mph - N/A   Mostly Cloudy
7:55 PM 77.0 °F - 68.0 °F 74% 29.99 in 10.0 mi SE 5.8 mph - N/A   Mostly Cloudy
8:55 PM 75.9 °F - 69.1 °F 79% 30.01 in 10.0 mi South 4.6 mph - N/A   Scattered Clouds
9:55 PM 75.9 °F - 69.1 °F 79% 30.01 in 10.0 mi SE 4.6 mph - N/A   Scattered Clouds
10:55 PM 75.0 °F - 69.1 °F 82% 30.01 in 10.0 mi SE 4.6 mph - N/A   Scattered Clouds
11:55 PM 75.0 °F - 69.1 °F 82% 30.00 in 10.0 mi SE 4.6 mph - N/A   Clear